EW2795 Weather Reports


Display with metric or nautical units.
time (UTC)temp
F
wind
direction
speed
MPH
gust
MPH
rain 1hr
in
rain 24hr
in
rain mn
in
humidity
%
barometer
mb
20260903180042 91 263 2.0 0.0 0.00 0.00 0.00 68 1012.1
20260903174526 91 210 4.0 0.0 0.00 0.00 0.00 68 1012.3
20260903173015 91 212 3.0 0.0 0.00 0.00 0.00 69 1012.5
20260903171507 90 210 3.0 0.0 0.00 0.00 0.00 68 1012.6
20260903170047 90 268 3.0 0.0 0.00 0.00 0.00 70 1012.8
20260903164537 90 311 3.0 0.0 0.00 0.00 0.00 70 1012.8
20260903163025 89 272 3.0 0.0 0.00 0.00 0.00 71 1013.0
20260903161516 88 242 3.0 0.0 0.00 0.00 0.00 71 1013.0
20260903160127 88 218 4.0 0.0 0.00 0.00 0.00 75 1013.0
20260903160003 88 197 4.0 0.0 0.00 0.00 0.00 74 1013.0
20260903154606 88 223 3.0 0.0 0.00 0.00 0.00 74 1012.9
20260903153035 87 213 2.0 0.0 0.00 0.00 0.00 74 1013.1
20260903151529 87 207 2.0 0.0 0.00 0.00 0.00 75 1013.1
20260903150018 86 258 1.0 0.0 0.00 0.00 0.00 74 1013.2
20260903144605 85 265 2.0 0.0 0.00 0.00 0.00 76 1013.0
20260903144502 85 264 2.0 0.0 0.00 0.00 0.00 76 1013.1
20260903143104 83 247 3.0 0.0 0.00 0.00 0.00 79 1013.4
20260903141556 82 228 2.0 0.0 0.00 0.00 0.00 81 1013.3
20260903140026 82 217 1.0 0.0 0.00 0.00 0.00 82 1013.5
20260903134517 81 219 3.0 0.0 0.00 0.00 0.00 83 1013.4
20260903133013 79 213 2.0 0.0 0.00 0.00 0.00 85 1013.6
20260903131553 79 216 1.0 0.0 0.00 0.00 0.00 86 1013.5
20260903130039 79 200 2.0 0.0 0.00 0.00 0.00 87 1013.6
20260903124524 78 206 1.0 0.0 0.00 0.00 0.00 89 1013.8
20260903123028 76 199 1.0 0.0 0.00 0.00 0.00 94 1013.9
20260903121513 74 198 0.0 0.0 0.00 0.00 0.00 96 1013.9
20260903120105 73 198 0.0 0.0 0.00 0.00 0.00 96 1013.9
20260903120005 73 198 0.0 0.0 0.00 0.00 0.00 96 1013.9
20260903114551 73 198 0.0 0.0 0.00 0.00 0.00 96 1013.7
20260903113051 73 198 0.0 0.0 0.00 0.00 0.00 96 1013.6
20260903111543 73 198 0.0 0.0 0.00 0.00 0.00 96 1013.5
20260903110048 73 198 0.0 0.0 0.00 0.00 0.00 96 1013.3
20260903104530 72 198 0.0 0.0 0.00 0.00 0.00 95 1013.1
20260903103020 72 198 0.0 0.0 0.00 0.00 0.00 95 1012.9
20260903101506 72 198 0.0 0.0 0.00 0.00 0.00 95 1012.8
20260903100054 72 198 0.0 0.0 0.00 0.00 0.00 95 1012.8
20260903094544 73 198 0.0 0.0 0.00 0.00 0.00 94 1012.6
20260903093030 73 198 0.0 0.0 0.00 0.00 0.00 94 1012.5
20260903091523 73 198 0.0 0.0 0.00 0.00 0.00 93 1012.5
20260903090018 73 198 0.0 0.0 0.00 0.00 0.00 93 1012.4
20260903084506 74 198 0.0 0.0 0.00 0.00 0.00 92 1012.4
20260903083054 74 198 0.0 0.0 0.00 0.00 0.00 92 1012.3
20260903081556 74 198 0.0 0.0 0.00 0.00 0.00 91 1012.5
20260903080044 75 198 1.0 0.0 0.00 0.00 0.00 91 1012.4
20260903074539 75 198 0.0 0.0 0.00 0.00 0.00 91 1012.3
20260903073038 75 198 1.0 0.0 0.00 0.00 0.00 91 1012.3
20260903071531 74 194 0.0 0.0 0.00 0.00 0.00 92 1012.3
20260903070018 74 194 1.0 0.0 0.00 0.00 0.00 93 1012.3
20260903064509 74 192 1.0 0.0 0.00 0.00 0.00 94 1012.4
20260903063112 74 213 0.0 0.0 0.00 0.00 0.00 94 1012.4
20260903061538 74 213 0.0 0.0 0.00 0.00 0.00 94 1012.5
20260903060026 74 213 0.0 0.0 0.00 0.00 0.00 93 1012.5
20260903054520 74 213 0.0 0.0 0.00 0.00 0.00 93 1012.6
20260903053013 75 213 0.0 0.0 0.00 0.00 0.00 92 1012.4
20260903051554 75 213 0.0 0.0 0.00 0.00 0.00 91 1012.3
20260903050050 75 213 0.0 0.0 0.00 0.00 0.00 91 1012.0
20260903044525 76 214 0.0 0.0 0.00 0.00 0.00 89 1012.1
20260903043021 77 214 0.0 0.0 0.00 0.00 0.00 88 1012.0
20260903041519 77 214 1.0 0.0 0.00 0.00 0.00 87 1011.8
20260903040057 76 219 2.0 0.0 0.00 0.00 0.00 91 1011.7
20260903034534 75 221 0.0 0.0 0.00 0.00 0.00 92 1011.8
20260903033031 75 221 0.0 0.0 0.00 0.00 0.00 91 1011.9
20260903031518 76 221 0.0 0.0 0.00 0.00 0.00 91 1012.1
20260903030108 76 221 0.0 0.0 0.00 0.00 0.00 90 1012.3
20260903024543 76 221 0.0 0.0 0.00 0.00 0.00 89 1012.6
20260903023038 77 221 0.0 0.0 0.00 0.00 0.00 88 1012.7
20260903021530 77 221 0.0 0.0 0.00 0.00 0.00 87 1012.6
20260903020017 77 221 1.0 0.0 0.00 0.00 0.00 89 1012.6
20260903014517 77 222 0.0 0.0 0.00 0.00 0.00 89 1012.7
20260903013054 77 221 0.0 0.0 0.00 0.00 0.00 89 1012.6
20260903011559 78 222 0.0 0.0 0.00 0.00 0.00 88 1012.5
20260903010032 78 222 0.0 0.0 0.00 0.00 0.00 86 1012.5
20260903004523 79 222 0.0 0.0 0.00 0.00 0.00 85 1012.5
20260903003011 80 222 0.0 0.0 0.00 0.00 0.00 84 1012.3
20260903001507 81 222 0.0 0.0 0.00 0.00 0.00 81 1012.3
20260903000008 83 222 0.0 0.0 0.00 0.00 0.00 79 1012.1
20260902234547 84 222 0.0 0.0 0.00 0.00 0.00 73 1012.2
20260902233048 85 222 1.0 0.0 0.00 0.00 0.00 71 1012.1
20260902231540 86 221 2.0 0.0 0.00 0.00 0.00 70 1012.0
20260902230028 87 230 2.0 0.0 0.00 0.00 0.00 70 1011.9
20260902224522 87 233 2.0 0.0 0.00 0.00 0.00 69 1011.9
20260902223009 88 236 3.0 0.0 0.00 0.00 0.00 68 1012.0
20260902221558 89 225 3.0 0.0 0.00 0.00 0.00 67 1012.0
20260902221501 88 234 3.0 0.0 0.00 0.00 0.00 67 1012.1
20260902220049 89 228 3.0 0.0 0.00 0.00 0.00 66 1011.9
20260902214540 91 235 3.0 0.0 0.00 0.00 0.00 64 1012.0
20260902213028 91 240 3.0 0.0 0.00 0.00 0.00 66 1012.0
20260902211529 92 208 3.0 0.0 0.00 0.00 0.00 65 1012.0
20260902210008 91 240 3.0 0.0 0.00 0.00 0.00 65 1012.1
20260902204554 91 214 4.0 0.0 0.00 0.00 0.00 65 1012.3
20260902203048 91 211 4.0 0.0 0.00 0.00 0.00 64 1012.3
20260902201539 92 271 3.0 0.0 0.00 0.00 0.00 64 1012.5
20260902200033 92 260 3.0 0.0 0.00 0.00 0.00 65 1012.7
20260902194519 91 225 3.0 0.0 0.00 0.00 0.00 67 1012.8
20260902193058 92 200 3.0 0.0 0.00 0.00 0.00 66 1012.9
20260902191548 92 212 3.0 0.0 0.00 0.00 0.00 65 1013.0
20260902190042 92 267 2.0 0.0 0.00 0.00 0.00 65 1013.1
20260902184527 91 203 4.0 0.0 0.00 0.00 0.00 69 1013.3
20260902183022 91 297 4.0 0.0 0.00 0.00 0.00 69 1013.5
20260902181504 90 245 3.0 0.0 0.00 0.00 0.00 69 1013.5